Location: ????????
(55.6333°N, 37.7000°E)
Time: 14:39:59
(UTC+00:00)

GEOS 3 Rocket - Pass Details

Date: 19 May 2025
Orbit: 782 x 832 km, 115.0° (Epoch: 20 June)

Event Time Altitude Azimuth Distance (km) Brightness Sun altitude
Exits shadow 21:40:51 - 132° (SE) 2,634 5.9 -14.3°
Reaches altitude 10° 21:41:34 10° 133° (SE) 2,347 5.7 -14.3°
Maximum altitude 21:46:40 84° 222° (SW) 805 3.5 -14.3°
Drops below altitude 10° 21:51:51 10° 311° (NW) 2,384 6.5 -14.2°
Sets 21:54:09 0° 312° (NW) 3,325 7.3 -14.2°
